Home   Weather   Erftstadt   Past weeks

Flag for Germany Past Weather in Erftstadt, North Rhine-Westphalia, Germany — Yesterday and Last 2 Weeks

Now
46 °F

Partly sunny.


Feels Like: 40 °F
Forecast: 39 / 49 °F
Wind: 16 mph from West

Location: Noervenich

Current Time: Dec 11, 2016 at 12:51:07 pm

Latest Report: Dec 11, 2016 at 11:20 am


Visibility: N/A

Pressure: 30.18 "Hg

Humidity: 82%

Dew Point: 41 °F

Location of ErftstadtLocation

Past Weather in Erftstadt — Graph

°F

Erftstadt Temperature Yesterday

Maximum temperature yesterday: 54 °F (at 12:20 pm)
Minimum temperature yesterday: 39 °F (at 9:20 am)
Average temperature yesterday: 48 °F

High & Low Weather Summary for the Past Weeks

 TemperatureHumidityPressure
High54 °F (Dec 9, 2:20 pm)100% (Nov 27, 2:20 am)30.57 "Hg (Nov 27, 2:20 am)
Low19 °F (Nov 30, 2:20 am)45% (Nov 30, 2:20 pm)30.01 "Hg (Dec 11, 3:20 am)
Average37 °F85%30.32 "Hg
* Reported Nov 26 11:20 am — Dec 11 11:20 am, Erftstadt, Weather by CustomWeather, © 2016

Note: Actual official high and low records may vary slightly from our data, if they occured in-between our weather recording intervals... More about our weather records

Advertising

Erftstadt Weather History for the Previous 24 Hours

Scroll right to see more
 ConditionsComfort  
Time TempWeatherWind HumidityBarometerVisibility
11:20 am
Sun, Dec 11
46 °FPartly sunny.16 mph82%30.18 "HgN/A
10:20 am46 °FScattered clouds.15 mph87%30.15 "HgN/A
9:20 am46 °FPartly sunny.12 mph87%30.15 "HgN/A
8:20 am46 °FPartly cloudy.14 mph87%30.12 "HgN/A
7:20 am46 °FPartly cloudy.15 mph87%30.12 "HgN/A
6:20 am46 °FPassing clouds.16 mph87%30.09 "HgN/A
5:20 am48 °FCool.25 mph87%30.04 "HgN/A
4:20 am50 °FCool.25 mph82%30.01 "Hg5 mi
3:20 am54 °FCool.28 mph67%30.01 "HgN/A
2:20 am52 °FCool.10 mph72%30.04 "HgN/A
1:20 am52 °FCool.12 mph72%30.07 "HgN/A
12:20 am52 °FCool.12 mph77%30.07 "HgN/A
11:20 pm
Sat, Dec 10
52 °FCool.10 mph82%30.09 "HgN/A
10:20 pm52 °FCool.3 mph77%30.12 "HgN/A
9:20 pm50 °FCool.7 mph82%30.15 "HgN/A
8:20 pm48 °FCool.5 mph87%30.15 "HgN/A
7:20 pm50 °FCool.6 mph82%30.18 "HgN/A
6:20 pm50 °FCool.8 mph76%30.18 "HgN/A
5:20 pm52 °FCool.7 mph77%30.21 "HgN/A
4:20 pm52 °FCool.8 mph77%30.21 "HgN/A
3:20 pm52 °FCool.9 mph72%30.21 "HgN/A
2:20 pm54 °FCool.8 mph63%30.21 "HgN/A
1:20 pm52 °FCool.7 mph67%30.24 "HgN/A
12:20 pm54 °FCool.5 mph58%30.24 "HgN/A
Weather by CustomWeather, © 2016

See weather overviewHow to use our weather pages